Location: Newark
(23.3970°S, 47.6010°W)
Time: 16:56:12
(UTC+00:00)

Vanguard 1 Rocket - All Passes

Search period start: 26 February 2020 00:00
Search period end: 07 March 2020 00:00
Orbit: 650 x 4226 km, 34.3° (Epoch: 25 February)

Date Brightness Start Highest point End Pass type
(mag) Time Alt. Az. Time Alt. Az. Time Alt. Az.
26 Feb - 00:12:48 10° WSW 00:36:28 46° NW 00:52:51 10° NNE visible
26 Feb - 13:05:15 10° NNW 13:12:19 35° NE 13:24:50 10° ESE daylight
26 Feb - 15:28:14 10° WNW 15:39:00 81° SSW 16:00:44 10° ESE daylight
26 Feb - 17:55:17 10° W 18:11:51 61° S 18:38:01 10° E daylight
26 Feb - 20:24:46 10° WSW 20:48:15 75° SSE 21:13:23 10° ENE daylight
26 Feb - 22:56:33 10° WSW 23:22:23 65° NW 23:42:04 10° NE visible
27 Feb - 01:36:00 10° W 01:51:25 21° NW 02:03:01 10° N visible
27 Feb - 11:57:45 10° NNE 12:01:49 15° NE 12:07:10 10° E daylight
27 Feb - 14:17:34 10° NW 14:26:16 76° NNE 14:44:12 10° ESE daylight
27 Feb - 16:43:05 10° W 16:56:24 63° S 17:20:42 10° ESE daylight
27 Feb - 19:11:27 10° WSW 19:31:35 66° SSE 19:58:04 10° E daylight
27 Feb - 21:41:41 10° WSW 22:07:10 83° NNW 22:29:57 10° NE visible
28 Feb - 00:16:18 10° WSW 00:38:25 37° NW 00:54:39 10° NNE visible
28 Feb - 13:07:43 10° NNW 13:14:45 47° NE 13:28:04 10° ESE daylight
28 Feb - 15:31:32 10° WNW 15:42:10 71° SSW 16:03:30 10° ESE daylight
28 Feb - 17:58:44 10° WSW 18:15:17 61° S 18:41:22 10° E daylight
28 Feb - 20:27:48 10° WSW 20:51:06 82° SSE 21:16:25 10° ENE daylight
28 Feb - 22:59:35 10° WSW 23:24:30 55° NW 23:44:17 10° NNE visible
29 Feb - 01:42:24 10° W 01:53:34 15° NW 02:02:47 10° NNW visible
29 Feb - 11:59:04 10° N 12:04:08 22° NE 12:11:46 10° E daylight
29 Feb - 14:20:39 10° WNW 14:29:10 89° SSW 14:46:55 10° ESE daylight
29 Feb - 16:46:35 10° W 16:59:50 60° S 17:23:51 10° ESE daylight
29 Feb - 19:14:40 10° WSW 19:34:44 70° SSE 20:01:20 10° ENE daylight
29 Feb - 21:44:36 10° WSW 22:09:32 73° NW 22:32:29 10° NE visible
01 Mar - 00:20:20 10° W 00:40:25 30° NW 00:56:02 10° N visible
01 Mar - 13:10:27 10° NW 13:17:23 61° NE 13:31:04 10° ESE daylight
01 Mar - 15:34:58 10° W 15:45:29 64° SSW 16:06:23 10° ESE daylight
01 Mar - 18:02:08 10° WSW 18:18:38 62° S 18:44:45 10° E daylight
01 Mar - 20:30:47 10° WSW 20:53:46 90° NNW 21:19:15 10° ENE daylight
01 Mar - 23:02:50 10° WSW 23:26:32 46° NW 23:46:13 10° NNE visible
02 Mar - 12:01:08 10° NNW 12:06:34 31° NE 12:15:33 10° ESE daylight
02 Mar - 14:23:54 10° WNW 14:32:18 76° SSW 14:49:40 10° ESE daylight
02 Mar - 16:50:05 10° WSW 17:03:17 58° S 17:27:08 10° E daylight
02 Mar - 19:17:49 10° WSW 19:37:42 76° SSE 20:04:27 10° ENE daylight
02 Mar - 21:47:36 10° WSW 22:11:46 64° NW 22:34:46 10° NE visible
03 Mar - 00:25:11 10° W 00:42:31 23° NW 00:56:49 10° N visible
03 Mar - 10:54:22 10° NE 10:56:17 11° NE 10:58:28 10° ENE daylight
03 Mar - 13:13:25 10° NW 13:20:13 79° NNE 13:33:55 10° ESE daylight
03 Mar - 15:38:28 10° W 15:48:55 58° S 16:09:24 10° ESE daylight
03 Mar - 18:05:26 10° WSW 18:21:53 65° SSE 18:48:05 10° E daylight
03 Mar - 20:33:46 10° WSW 20:56:17 81° NNW 21:21:51 10° NE daylight
03 Mar - 23:06:28 10° WSW 23:28:36 38° NW 23:47:48 10° NNE visible
04 Mar - 12:03:38 10° NNW 12:09:09 44° NE 12:18:53 10° ESE daylight
04 Mar - 14:27:18 10° W 14:35:35 65° SSW 14:52:28 10° ESE daylight
04 Mar - 16:53:32 10° WSW 17:06:42 58° S 17:30:29 10° E daylight
04 Mar - 19:20:53 10° WSW 19:40:31 83° SSE 20:07:22 10° ENE daylight
04 Mar - 21:50:46 10° WSW 22:13:57 54° NW 22:36:45 10° NNE visible
05 Mar - 00:31:29 10° W 00:44:51 17° NW 00:56:33 10° NNW visible
05 Mar - 10:55:05 10° N 10:58:47 18° NE 11:03:44 10° E daylight
05 Mar - 13:16:35 10° WNW 13:23:16 83° SSW 13:36:43 10° ESE daylight
05 Mar - 15:42:00 10° WSW 15:52:23 55° S 16:12:34 10° ESE daylight
05 Mar - 18:08:40 10° WSW 18:24:59 70° SSE 18:51:17 10° ENE daylight
05 Mar - 20:36:47 10° WSW 20:58:42 71° NW 21:24:11 10° NE daylight
05 Mar - 23:10:37 10° W 23:30:46 30° NW 23:48:57 10° N visible
06 Mar - 12:06:25 10° NW 12:11:56 61° NE 12:21:59 10° ESE daylight
06 Mar - 14:30:48 10° W 14:39:00 57° S 14:55:24 10° ESE daylight
06 Mar - 16:56:55 10° WSW 17:10:02 60° SSE 17:33:51 10° E daylight
06 Mar - 19:23:56 10° WSW 19:43:13 88° NNW 20:10:03 10° ENE daylight
06 Mar - 21:54:10 10° WSW 22:16:09 45° NW 22:38:27 10° NNE visible
